Location: Falconara Alta
(43.6167°N, 13.4000°E)
Time: 21:30:59
(UTC+00:00)

STARLINK-1238 - Pass Details

Date: 09 April 2020
Orbit: 549 x 551 km, 53.0° (Epoch: 26 May)

Event Time Altitude Azimuth Distance (km) Brightness Sun altitude
Rises 18:17:00 0° 306° (NW) 2,735 8.9 -6.8°
Reaches altitude 10° 18:19:18 10° 311° (NW) 1,838 7.6 -7.2°
Maximum altitude 18:23:23 52° 28° (NNE) 696 4.1 -7.9°
Enters shadow 18:27:16 11° 105° (ESE) 1,762 5.5 -8.5°
